This is the latest recevied weather packets stored in our database for station/object IK6ZEW-13. If no packets are shown the sender has not sent any weather packets the latest 10 day(s).
| Time | Temp. | Humidity | Pressure | Rain* | Wind** | Luminosity | Snow |
|---|---|---|---|---|---|---|---|
| 1778157365 | 23.33° C | 57% | 1014 hPa | - | - | - | - |
| 1778157061 | 23.33° C | 57% | 1014.2 hPa | - | - | - | - |
| 1778156756 | 23.33° C | 57% | 1014.2 hPa | - | - | - | - |
| 1778156452 | 23.33° C | 58% | 1014.3 hPa | - | - | - | - |
| 1778156147 | 23.89° C | 57% | 1014.3 hPa | - | - | - | - |
| 1778155842 | 23.33° C | 57% | 1014.1 hPa | - | - | - | - |
| 1778155538 | 23.89° C | 57% | 1014.2 hPa | - | - | - | - |
| 1778155233 | 23.89° C | 57% | 1014.2 hPa | - | - | - | - |
| 1778154929 | 24.44° C | 58% | 1014.2 hPa | - | - | - | - |
| 1778154623 | 24.44° C | 60% | 1014.2 hPa | - | - | - | - |
| 1778154318 | 25° C | 65% | 1014.1 hPa | - | - | - | - |
| 1778154014 | 25° C | 65% | 1014.1 hPa | - | - | - | - |
| 1778153708 | 24.44° C | 66% | 1014.1 hPa | - | - | - | - |
| 1778153403 | 24.44° C | 66% | 1014.1 hPa | - | - | - | - |
| 1778153098 | 24.44° C | 65% | 1014.1 hPa | - | - | - | - |
| 1778152794 | 24.44° C | 65% | 1014.1 hPa | - | - | - | - |
| 1778152489 | 24.44° C | 65% | 1014.1 hPa | - | - | - | - |
| 1778152184 | 24.44° C | 65% | 1014.1 hPa | - | - | - | - |
| 1778151880 | 24.44° C | 65% | 1014.1 hPa | - | - | - | - |
| 1778151575 | 24.44° C | 64% | 1014.1 hPa | - | - | - | - |
| 1778151271 | 24.44° C | 64% | 1014.2 hPa | - | - | - | - |
| 1778150966 | 24.44° C | 64% | 1014.2 hPa | - | - | - | - |
| 1778150659 | 24.44° C | 64% | 1014.3 hPa | - | - | - | - |
| 1778150351 | 24.44° C | 63% | 1014.4 hPa | - | - | - | - |
| 1778150046 | 24.44° C | 63% | 1014.4 hPa | - | - | - | - |
* Rain since midnight (hover to see other rain measurements)
** Current wind speed in m/s (hover to see current wind gust speed)